NWS Melbourne » East Central Florida Hourly Weather Roundup

MIARWRMLB 000
TTAA00 KMLB 240211
HOURLY WEATHER ROUNDUP AROUND FLORIDA
NATIONAL WEATHER SERVICE OFFICE MELBOURNE FL
1000 PM EDT WED JUL 23 2014
  
CITY           SKY/WX    TMP DP  RH WIND       PRES   REMARKS
MELBOURNE      CLEAR     83  76  79 S6        30.03S                  
FORT PIERCE    CLEAR     81  75  82 S3        30.04S                  
ORLANDO INTL   LGT RAIN  83  76  79 CALM      30.04R                  
DAYTONA BEACH  PTCLDY    81  77  88 CALM      30.03R                  
VERO BEACH     CLEAR     80  78  94 S6        30.04S                  
$$
...ELSEWHERE ACROSS CENTRAL FLORIDA...
  
CITY           SKY/WX    TMP DP  RH WIND       PRES   REMARKS
PATRICK AFB    CLEAR     84  77  79 S14       30.04R                  
JFK SPACE CTR  CLEAR     81  79  94 S5        30.03R                  
CAPE CANAVERAL CLEAR     83  76  81 S8        30.03R                  
ORLANDO EXEC   PTCLDY    81  77  88 SE9       30.04R                  
LEESBURG       PTCLDY    81  77  88 CALM      30.04R                  
SANFORD        LGT RAIN  83  79  88 SE7       30.04R                  
WINTER HAVEN   HVY RAIN  78  74  87 S6        30.07R FOG              
KISSIMMEE      LGT RAIN  84  75  74 S6        30.04R                  
OKEECHOBEE     CLEAR     81  75  83 MISG      30.05R                  
TAMPA          MOCLDY    84  73  69 NW5       30.03R                  
$$
...NORTHERN FLORIDA...
  
CITY           SKY/WX    TMP DP  RH WIND       PRES   REMARKS
DELAND         PTCLDY    81  77  89 CALM      30.04R                  
NEW SMYRNA BCH PTCLDY    81  77  89 S6        30.03S                  
PALM COAST     CLEAR     79  75  87 SE3       30.02S                  
ST AUGUSTINE   PTCLDY    82  75  79 S7        30.02R                  
OCALA          CLEAR     81  70  69 SW3       30.03S                  
GAINESVILLE    CLEAR     81  74  79 W8        30.01S                  
JACKSONVILLE   MOCLDY    79  77  94 SE7       30.00R                  
TALLAHASSEE    MOCLDY    78  72  81 CALM      30.01R                  
$$
...ALONG THE SOUTHEAST COAST TO THE KEYS...
  
CITY           SKY/WX    TMP DP  RH WIND       PRES   REMARKS
STUART         CLEAR     81  75  83 S5        30.06R                  
WEST PALM BCH  PTCLDY    84  76  76 S6        30.04S                  
MIAMI          PTCLDY    84  75  74 SE5       30.06S                  
KEY WEST       CLEAR     86  73  65 E7        30.05R                  
$$
...MARINE REPORTS...
  
STATION/POSITION TIME  TEMP    WIND        PRES    WAVE   SWELL
                       AIR SEA DIR/SP/G            HT/PER HT/PER/DIR
                 (UTC) (F)     (DEG/KT/KT) (MB)    (FT/S) (FT/S/D)
ST AUGUSTINE FP  0200   83     170/ 13/ 14 1017.0R
20NM E CAPE CANA 0200   83 83  170/ 14/ 16 1017.1R   2/ 8   2/ 70/ 8
120 E NEW SMYRNA 0200   82 83  170/ 10/ 12 1018.0S   3/ 8   3/120/ 8
TRIDENT PIER     0200   83 87  150/  8/ 11 1016.3R
SEBASTIAN INLET  0200   83     170/ 10     1018.0R
4NM E PORT CANAV 0200      85                N/A     3/ 3
6NM NE FPR INLET 0200      83                N/A     3/ 4
SETTLEMENT PT GB 0200   82     140/  5/  6 1018.9R
$$
  
 


USA.gov is the U.S. government's official web portal to all federal, state and local government web resources and services.